This demonstration page uses our WeatherBlox Daily Observations layout. Learn more.

Left ArrowRight Arrow

Hourly Observations for January 20, 2019

Temp ( °F °C ) Dew Point ( °F °C ) Humidity (%) Winds ( mph kmh ) Pressure ( in mb ) Visibility ( mi km ) Precip ( " mm )
12:51 am 00:51 Clear 40 4.4 22 -5.6 49 49 SSE 5 7 30.24 1024 10 16 N/A
1:51 am 01:51 Clear 36 2.2 23 -5 59 59 E 3 6 30.23 1024 10 16 N/A
2:51 am 02:51 Clear 42 5.6 22 -5.6 45 45 ESE 8 13 30.20 1023 10 16 N/A
3:51 am 03:51 Clear 35 1.7 23 -5 61 61 N N/A 30.21 1023 10 16 N/A
4:51 am 04:51 Clear 36 2.2 23 -5 59 59 SE 8 13 30.20 1023 10 16 N/A
5:51 am 05:51 Clear 33 0.6 23 -5 66 66 ENE 5 7 30.22 1023 10 16 N/A
6:51 am 06:51 Clear 32 undefined 23 -5 69 69 SE 8 13 30.26 1025 10 16 N/A
7:51 am 07:51 Sunny 36 2.2 23 -5 59 59 SSE 13 20 30.25 1024 10 16 N/A
8:51 am 08:51 Sunny 42 5.6 25 -3.9 51 51 SSE 10 17 30.24 1024 10 16 N/A
9:51 am 09:51 Sunny 51 10.6 21 -6.1 31 31 ESE 13 20 30.23 1024 10 16 N/A
10:51 am 10:51 Sunny 54 12.2 23 -5 30 30 SE 10 17 30.21 1023 10 16 N/A
11:51 am 11:51 Sunny 58 14.4 22 -5.6 25 25 ESE 10 17 30.17 1022 10 16 N/A
12:51 pm 12:51 Sunny 62 16.7 20 -6.7 20 20 SSE 8 13 30.11 1020 10 16 N/A
1:51 pm 13:51 Sunny 63 17.2 20 -6.7 19 19 N N/A 30.08 1019 10 16 N/A
2:51 pm 14:51 Sunny 65 18.3 21 -6.1 19 19 VRB 3 6 30.01 1016 10 16 N/A
3:51 pm 15:51 Sunny 65 18.3 21 -6.1 19 19 S 3 6 30.01 1016 10 16 N/A
4:51 pm 16:51 Sunny 65 18.3 20 -6.7 18 18 N N/A 29.99 1016 10 16 N/A
5:51 pm 17:51 Clear 57 13.9 22 -5.6 26 26 N N/A 30.01 1016 10 16 N/A
6:51 pm 18:51 Clear 50 10 25 -3.9 38 38 E 5 7 30.02 1017 10 16 N/A
7:51 pm 19:51 Clear 50 10 24 -4.4 36 36 W 3 6 30.02 1017 10 16 N/A
8:51 pm 20:51 Clear 43 6.1 26 -3.3 51 51 NNW 3 6 30.02 1017 10 16 N/A
9:51 pm 21:51 Clear 45 7.2 25 -3.9 46 46 NNE 6 9 29.97 1015 10 16 N/A
10:51 pm 22:51 Clear 44 6.7 25 -3.9 47 47 SSE 7 11 29.96 1015 10 16 N/A
11:51 pm 23:51 Clear 42 5.6 26 -3.3 53 53 SSE 8 13 29.96 1014 10 16 N/A

Powered by AerisWeather